Terug naar catalogus

STARLINK-11239

ActiefCommunicatieVLEO
NORAD 60924·PAYLOAD·🇺🇸 United States

Gelanceerd Aug 31, 2024 vanaf Vandenberg Space Force Base

Loading…

Volgende Passages (komende 24 uur)

TLE

VersSource: CelesTrak SupGP

Epoch: Sep 14, 2026, 22:51 UTC

1 60924C 24155A   26257.95256944 -.00048511  00000+0 -39958-3 0  2578
2 60924  53.1561 128.6181 0001245  90.8137 260.5188 15.69734814    10

Volg STARLINK-11239 in realtime met AllMySat

Download on the App Store